Tracking 27420 objects as of 10-Jun-2023
HD Live streaming from Space Station
objects crossing your sky now

FLOCK 4V 12

Track FLOCK 4V 12 now!
10-day predictions
FLOCK 4V 12 is classified as:


NORAD ID: 46283
Int'l Code: 2020-061M
Perigee: 481.7 km
Apogee: 487.2 km
Inclination: 97.4 °
Period: 94.1 minutes
Semi major axis: 6855 km
RCS: Unknown
Launch date: September 3, 2020
Source: United States (US)
Launch site: FRENCH GUIANA (FRGUI)
Your satellite tracking list
Your tracking list is empty




NASA's NSSDC Master Catalog

Two Line Element Set (TLE):
1 46283U 20061M   23160.67539302  .00030763  00000-0  10748-2 0  9990
2 46283  97.4031 230.2884 0003981 110.2219 249.9450 15.29504260152749
Source of the keplerian elements: AFSPC